User: anonymous   Login
Location: Franzen
(48.6167°N, 15.3833°E)
Time: 16:53:18
(UTC+00:00)
Language:

Cosmos 1943 - Orbit

View from above orbital plane
View from above orbital plane
View from above satellite
View from above satellite

Ground track
Ground track

The orbit data is extracted from the following two-line orbital elements,

1 19119U 88039A   21167.06208868 -.00000122  00000-0 -38415-4 0  9996
2 19119  71.0045 275.7920 0012004 346.0120 187.2121 14.15178516708629
Epoch (UTC): 16 June 2021 01:29:24
Eccentricity: 0.0012004
inclination: 71.0045°
perigee height: 833 km
apogee height: 850 km
right ascension of ascending node: 275.7920°
argument of perigee: 346.0120°
revolutions per day: 14.15178516
mean anomaly at epoch: 187.2121°
orbit number at epoch: 70862

The dashed part of the orbit path shows where the satellite is in the earth's shadow,  

DLR